RH
1 1 1 1 1 2 5 49 100 100 89 93 50 21 74 29 31 31 34 43 36 38 64 74 75 73 64 57 54 60 63 60 58 73 73 62 59 65 60 55 52 60 48 44 42 44 41
2 2 1 1 2 2 2 2 32 76 100 96 100 81 77 60 30 31 34 39 41 33 50 69 77 78 74 62 64 61 59 60 61 62 65 72 65 76 59 60 65 58 48 46 44 43 40
1 1 1 1 1 1 2 2 2 14 95 100 99 95 62 80 63 30 34 36 47 35 36 60 76 74 62 64 67 62 58 57 58 61 60 60 59 58 53 46 47 44 40 43 45 38 36
1 1 1 2 2 1 2 2 2 2 70 100 99 98 83 87 95 33 32 39 47 44 31 48 71 77 65 65 62 62 59 56 58 59 60 59 58 59 61 55 65 84 95 79 54 44 44
1 2 2 2 2 2 2 2 2 2 5 89 94 99 95 82 92 89 37 44 47 51 35 37 53 71 66 64 62 58 52 54 62 59 61 61 57 57 65 70 71 84 87 98 97 86 74
2 2 2 2 2 2 2 2 3 3 2 7 64 99 99 87 87 89 58 55 52 55 41 33 31 55 59 65 66 67 61 54 55 63 65 64 68 78 98 78 83 80 94 89 95 96 79
3 3 3 3 3 3 3 3 2 2 2 2 22 98 86 98 86 100 80 83 62 51 49 37 42 48 38 54 61 62 56 56 57 60 60 62 71 98 80 80 92 86 90 95 88 84 93
4 5 14 46 17 8 7 4 3 9 4 2 3 21 89 98 93 99 98 72 63 56 48 44 39 33 33 44 54 59 57 54 53 54 62 71 61 61 70 100 99 96 97 97 94 88 71
4 7 71 84 82 64 35 18 19 70 92 80 7 53 99 98 99 99 94 95 75 65 62 50 45 40 38 41 46 46 48 59 67 70 73 69 64 65 70 84 100 100 100 99 74 55 48
5 10 47 55 75 72 65 51 67 95 85 89 51 9 98 98 98 98 92 98 78 80 66 53 42 43 39 42 44 41 51 69 85 79 81 81 74 81 88 83 86 82 75 68 73 81 95
11 36 64 78 76 65 52 57 95 100 93 95 86 38 93 99 98 98 81 96 100 82 95 52 57 51 51 52 62 47 63 80 92 88 84 77 80 79 84 81 85 98 82 77 89 88 90
72 81 78 81 86 61 61 82 97 88 86 79 73 60 100 98 98 99 96 100 98 82 92 64 64 86 68 64 73 79 73 91 100 98 99 96 95 99 96 81 84 96 94 89 91 100 94
69 81 75 84 91 71 61 89 97 93 97 81 78 65 95 98 98 98 96 99 92 86 61 68 78 83 100 95 100 99 85 100 97 99 99 100 94 99 97 93 94 97 97 96 99 97 84
76 82 87 85 88 78 75 58 94 96 98 96 79 68 93 98 94 99 99 97 88 68 62 65 64 74 100 100 98 100 98 99 97 100 97 93 90 80 73 82 86 87 87 90 91 96 86
82 85 89 84 90 83 91 56 92 98 95 96 82 80 84 96 98 98 100 100 70 63 62 54 70 74 94 84 92 100 99 100 100 98 97 94 93 83 78 67 85 98 97 68 84 70 93
45 86 88 82 91 82 77 57 93 94 99 97 85 93 74 96 98 98 97 86 73 70 56 59 51 59 72 89 91 99 95 73 92 91 100 96 98 81 77 84 94 98 94 98 98 96 93
82 90 91 83 90 76 60 42 84 66 98 90 96 90 90 97 98 98 98 95 80 72 58 64 67 69 93 98 100 100 84 55 58 61 79 86 97 90 90 85 71 98 99 98 95 96 94
85 91 87 84 94 74 40 27 58 54 98 99 97 99 94 96 97 97 99 91 78 71 64 81 84 76 86 100 98 100 86 64 66 63 83 88 97 98 85 69 71 69 69 72 94 83 86
93 93 77 91 94 75 12 32 83 49 96 97 100 77 92 98 99 98 96 84 81 79 77 76 73 81 83 98 98 91 86 70 78 83 72 87 98 96 93 87 85 97 89 88 82 83 76
93 92 86 94 98 83 11 26 65 40 92 97 98 98 97 97 98 98 97 93 86 82 80 87 96 88 99 99 96 90 82 82 75 70 89 96 94 88 90 89 96 96 97 97 97 96 83
94 85 80 92 96 74 12 38 36 48 93 98 100 97 98 98 98 99 96 98 99 96 91 97 96 99 99 99 98 97 92 79 95 96 96 98 97 96 92 96 98 96 97 97 97 88 92
93 84 86 95 91 57 16 63 51 93 98 98 96 99 99 88 100 96 79 90 96 96 96 98 95 94 97 98 96 96 89 97 100 98 97 96 94 98 98 98 98 98 97 93 92 89 78
93 91 86 81 90 24 12 40 96 98 99 100 88 98 95 80 86 82 79 87 85 88 99 98 99 100 99 98 98 98 99 98 98 100 99 99 98 98 89 98 99 98 96 100 93 90 94
89 96 69 79 76 18 12 33 95 96 96 98 98 99 100 93 94 95 76 82 82 86 98 100 94 95 98 98 99 98 99 94 87 84 94 99 99 98 94 97 98 98 99 87 56 58 74
86 86 88 44 66 13 11 35 100 97 97 97 98 100 95 88 90 82 88 84 96 98 100 99 87 89 100 99 99 99 98 82 71 78 79 88 100 97 98 99 87 89 98 68 67 59 64
87 79 84 56 73 24 9 60 100 99 98 97 98 99 100 90 82 82 100 87 88 99 97 89 96 91 88 90 99 99 91 88 87 86 80 98 100 99 97 99 89 82 99 99 89 84 86
58 54 59 43 35 34 9 54 93 84 83 95 96 100 99 98 85 78 85 84 87 97 92 93 82 80 91 99 99 99 92 82 83 85 98 99 99 98 94 94 80 69 70 88 84 66 62
64 48 56 43 43 53 8 39 100 94 84 99 98 98 98 95 94 85 88 96 96 98 94 90 92 95 100 99 99 98 83 83 85 79 78 80 86 92 98 99 74 70 71 70 56 47 68
44 42 47 56 44 53 19 24 96 100 100 100 96 96 93 98 91 86 92 94 95 97 97 99 97 98 99 99 98 98 93 95 84 77 74 78 69 77 78 68 74 76 70 66 53 51 62
Wind_Speed
25 25 28 29 29 31 28 22 21 25 26 26 26 27 24 23 24 22 21 21 20 18 16 12 12 14 16 18 19 17 13 8 6 12 14 15 18 20 24 23 26 28 29 33 35 36 37
26 27 27 28 30 31 30 31 33 30 24 27 28 26 24 26 25 24 22 22 21 20 18 16 14 15 17 18 19 18 22 21 18 18 16 16 17 19 22 24 26 28 28 29 31 36 38
30 31 32 32 31 32 33 31 32 32 31 26 28 26 25 24 25 25 24 23 22 22 20 20 16 15 16 11 18 17 18 20 18 18 19 18 21 22 23 24 25 27 30 30 33 33 34
34 36 36 36 37 34 35 35 33 31 37 28 24 26 26 24 25 26 25 24 23 22 22 22 20 18 17 15 14 16 17 18 16 17 17 19 23 25 26 26 24 19 21 24 23 24 30
40 39 38 38 38 38 38 36 35 34 36 42 31 25 27 24 27 26 26 25 25 23 24 24 23 20 21 20 19 19 18 18 18 19 17 20 22 23 23 21 23 23 22 18 17 7 12
43 41 40 38 37 39 39 37 37 35 35 41 46 26 28 25 27 28 26 26 26 25 27 26 24 19 22 13 18 23 20 22 21 20 19 20 22 23 21 22 16 18 20 21 18 10 17
46 43 39 36 36 37 36 37 36 37 35 35 46 35 32 28 27 27 28 27 25 27 29 23 9 18 22 12 20 19 18 17 16 19 21 24 27 29 28 25 27 26 21 22 23 20 24
49 49 47 43 38 34 33 34 34 36 36 34 39 44 36 32 29 31 28 30 27 24 22 23 24 25 24 21 18 16 17 20 22 22 23 27 35 30 30 24 26 29 31 33 34 30 31
49 49 40 38 39 43 40 32 33 27 25 27 33 44 42 36 30 34 31 20 24 24 23 24 23 24 23 27 30 29 24 23 22 23 25 28 26 12 24 33 30 32 34 34 35 30 32
46 46 42 43 44 44 40 34 21 21 23 27 27 43 44 35 29 41 36 25 19 19 11 14 18 24 28 30 33 26 26 25 24 23 20 21 27 31 29 26 25 36 33 32 30 22 12
43 42 42 43 43 44 37 25 22 26 22 27 22 35 44 36 35 44 30 19 16 14 2 8 17 19 20 27 22 11 17 24 26 21 20 19 18 14 23 33 30 22 17 15 15 20 25
39 39 40 43 42 41 27 17 23 23 26 26 26 30 33 39 29 41 29 23 19 10 6 8 11 12 14 18 18 12 12 17 17 21 25 28 26 29 25 18 17 24 16 14 15 15 13
39 38 39 42 40 38 25 22 19 17 23 17 18 22 38 31 26 37 34 36 19 8 7 9 13 16 15 16 15 13 14 21 16 11 20 23 29 32 31 26 25 19 16 4 6 8 8
38 37 38 40 37 35 27 28 20 32 25 15 15 23 32 17 29 42 34 32 8 10 13 8 13 16 18 14 16 16 14 20 21 20 19 13 10 18 27 32 23 22 29 9 5 3 4
37 36 37 38 34 34 30 29 24 27 23 13 13 17 29 22 34 47 46 31 19 16 25 13 15 17 16 15 10 12 20 25 25 26 17 8 11 11 13 9 20 17 30 32 18 20 6
36 34 35 35 32 33 30 18 26 29 24 14 11 12 27 26 49 45 40 29 23 17 11 18 15 12 10 12 14 12 13 6 17 24 23 15 18 25 20 14 20 32 13 10 17 6 6
35 34 34 32 30 31 27 19 28 30 26 12 7 10 35 11 42 47 39 27 28 22 15 13 15 12 10 10 16 12 9 6 8 9 12 24 22 10 16 24 31 27 35 26 10 6 3
33 33 33 30 28 29 24 17 25 30 26 1 5 9 23 15 41 43 36 33 28 22 17 15 12 12 12 10 11 18 18 11 6 8 16 21 13 22 32 26 20 26 31 32 21 9 13
34 35 33 28 26 28 19 14 21 26 26 10 5 8 20 28 33 39 30 29 30 27 24 16 13 13 15 16 10 14 13 12 12 19 7 15 14 10 8 19 29 26 34 35 35 26 27
34 36 29 26 27 26 15 12 18 22 28 5 11 11 19 30 17 31 34 33 26 25 18 17 8 17 11 13 15 9 11 6 6 8 17 15 21 21 17 15 11 16 30 36 36 27 35
32 33 26 26 27 26 14 10 16 23 12 10 16 16 35 47 21 35 31 20 24 14 20 15 17 16 11 13 16 21 24 21 20 18 16 23 31 32 41 41 41 39 31 26 44 43 24
31 30 27 26 27 25 12 8 12 19 6 16 16 12 27 28 24 27 26 16 20 19 12 14 17 7 9 19 19 5 9 13 21 17 19 23 32 33 40 37 33 42 42 37 31 36 42
33 31 29 27 27 24 11 7 8 19 13 17 16 9 35 19 35 30 33 29 15 10 12 15 9 9 13 12 12 17 20 12 11 17 24 24 27 18 21 21 16 21 36 38 35 36 32
31 30 31 26 25 22 10 3 5 7 8 20 13 25 31 24 40 32 19 22 19 19 18 7 11 12 10 9 10 14 16 22 24 25 28 31 29 16 19 23 3 12 12 19 34 34 33
29 29 29 27 20 20 11 5 4 3 9 10 27 27 28 23 28 32 17 12 15 16 14 14 15 15 15 16 15 8 8 16 23 25 29 27 27 9 7 13 10 18 9 0 24 32 33
28 27 26 26 20 18 10 3 2 5 11 10 24 26 20 32 24 17 26 20 15 13 12 15 14 17 19 16 14 5 5 5 4 5 8 12 13 15 13 6 4 14 11 13 5 9 5
27 26 24 26 17 15 11 5 11 11 10 13 7 17 24 18 15 18 20 19 19 16 13 12 12 14 14 18 16 11 8 7 4 5 5 9 9 15 13 6 4 9 7 9 7 8 8
29 26 23 23 16 15 8 9 11 13 13 16 14 15 20 20 14 17 16 13 12 17 15 11 10 10 12 14 13 12 12 11 11 10 5 7 6 6 6 5 4 4 2 3 11 6 12
33 24 22 22 19 16 10 9 16 16 15 19 20 18 16 18 11 12 14 17 16 16 14 16 13 10 7 11 10 10 10 7 12 5 11 6 9 3 6 2 1 5 2 5 4 4 9
Wind_Direction
319 313 308 304 300 295 289 274 266 278 280 282 274 271 261 264 263 260 260 259 257 257 253 250 253 256 254 253 250 257 253 238 209 215 237 248 246 245 246 249 249 254 252 253 258 260 257
326 322 314 307 304 299 291 280 261 256 275 273 275 269 259 262 258 258 257 257 257 254 252 252 254 255 257 259 253 254 258 259 251 252 256 253 254 248 249 246 247 255 255 258 257 258 260
330 326 320 312 305 296 291 284 276 258 251 262 266 265 264 255 254 254 253 255 254 253 249 250 251 253 254 251 246 245 255 259 257 254 259 256 256 250 250 257 261 260 261 258 259 261 263
328 325 320 316 310 302 292 286 279 264 240 252 251 259 255 248 253 247 249 250 251 251 248 248 247 248 252 251 246 243 250 254 255 252 250 249 250 253 254 254 254 265 271 272 272 266 264
324 322 318 314 308 303 295 288 280 271 251 240 247 255 245 240 244 247 241 243 247 247 248 245 245 250 255 254 247 242 245 250 254 254 243 243 248 249 249 244 252 255 255 259 272 272 271
326 323 320 314 307 302 295 289 281 273 264 247 233 250 239 231 241 251 246 238 239 241 242 247 249 249 245 247 241 246 245 247 246 246 244 242 246 246 245 235 235 245 247 261 266 274 258
327 325 321 314 314 308 299 292 287 277 269 257 237 239 241 221 226 244 246 236 235 238 243 248 228 233 239 253 246 238 238 239 236 238 240 247 245 241 251 257 261 263 250 259 260 262 277
331 330 331 331 327 318 308 298 290 285 272 262 240 231 237 210 214 234 246 239 236 243 249 244 243 240 244 249 247 229 229 255 252 248 241 241 251 258 259 254 253 258 260 262 270 270 271
332 330 333 326 326 323 320 309 290 296 302 279 247 223 225 214 208 224 236 243 238 241 251 251 248 244 243 246 247 249 251 251 252 250 247 248 253 264 254 250 249 253 256 265 273 284 273
329 329 330 324 325 326 325 314 296 291 289 283 253 225 223 220 234 213 223 235 231 240 255 262 247 245 238 241 251 253 249 247 247 249 251 261 256 254 256 255 250 258 263 269 271 273 269
328 330 330 326 328 331 325 312 293 280 283 285 267 227 208 222 226 213 219 216 217 218 327 236 223 223 222 221 232 250 233 235 238 245 242 251 266 266 259 256 253 253 269 272 276 270 278
333 329 324 323 329 332 317 292 319 296 302 289 271 223 213 208 229 217 197 203 211 183 251 219 198 196 209 199 212 210 208 214 234 247 252 261 266 269 266 261 258 254 253 276 268 255 254
330 324 321 322 327 330 311 285 310 314 336 287 263 242 208 196 199 216 196 191 170 191 204 220 198 191 190 190 192 210 211 211 220 225 253 266 264 263 263 262 257 250 233 244 225 205 241
330 327 324 324 328 328 315 295 287 326 352 308 268 250 243 195 196 203 193 170 174 206 199 206 195 185 188 196 210 213 219 227 235 240 256 256 280 245 260 248 244 245 226 207 222 228 269
331 327 325 325 328 328 318 309 317 346 342 314 270 250 238 214 171 199 191 181 195 201 206 195 164 188 204 205 216 216 237 246 251 237 221 232 248 240 258 261 233 226 215 245 246 256 294
333 329 325 324 326 325 321 291 311 332 350 333 269 251 217 164 168 184 192 192 196 202 177 198 202 201 206 217 216 218 235 263 241 245 231 254 266 263 258 223 229 228 233 218 204 196 228
339 330 327 326 325 328 322 295 299 323 353 289 275 214 205 164 179 175 186 188 187 197 212 192 200 205 207 218 223 221 240 257 253 257 226 234 245 262 228 227 239 218 231 236 250 216 217
339 331 330 327 328 328 321 300 292 311 348 24 172 203 211 199 175 180 190 192 195 196 207 207 207 229 246 227 240 230 247 243 271 271 236 238 247 246 247 257 263 255 244 233 223 222 227
340 335 333 331 336 332 319 303 311 307 330 8 96 196 224 176 179 188 194 197 204 209 220 216 239 241 243 239 243 255 265 261 260 257 255 227 228 265 275 253 248 238 242 239 242 240 242
339 336 337 335 341 339 322 291 317 307 316 290 154 151 195 193 182 198 201 202 201 212 215 223 221 233 241 236 239 253 249 255 262 269 239 246 246 245 250 252 229 238 233 226 230 233 238
339 341 341 338 344 343 331 316 316 303 311 174 162 171 178 186 191 189 197 202 198 196 210 224 231 221 224 242 257 246 251 252 268 270 236 238 256 263 273 275 261 255 255 243 234 237 225
344 349 347 343 343 345 329 325 319 329 155 165 190 200 181 184 189 192 200 199 204 203 221 224 224 225 246 235 251 230 274 259 264 275 269 276 267 279 278 283 269 255 252 250 249 242 246
346 350 346 340 344 345 328 323 3 12 139 171 207 197 200 200 196 203 215 206 172 207 243 213 230 250 267 249 261 268 255 230 242 279 278 274 267 280 286 303 320 244 254 244 244 234 233
342 345 346 337 341 345 328 303 43 46 160 198 188 160 187 195 195 208 208 199 201 227 236 193 246 242 267 270 273 274 263 250 256 267 272 281 283 288 284 311 238 319 248 240 229 231 229
342 342 344 344 344 342 325 319 148 131 178 181 168 167 190 200 201 210 203 198 211 226 230 222 234 250 262 275 293 270 262 267 272 272 265 276 281 297 292 310 304 344 17 137 199 232 239
340 340 338 342 340 341 324 294 222 182 177 187 166 172 189 197 202 216 202 207 223 242 235 249 247 253 249 246 255 243 220 248 291 278 265 238 259 276 311 310 343 358 45 57 123 316 309
345 342 338 340 334 335 322 236 177 202 202 195 161 185 200 199 195 188 203 221 231 240 255 265 263 258 250 235 231 234 230 246 261 247 239 222 246 249 272 283 314 352 30 83 44 17 100
345 345 341 342 337 332 309 239 181 190 195 170 175 182 191 197 175 196 220 223 233 242 250 264 274 279 243 228 225 208 230 236 244 246 263 221 209 226 212 251 313 321 51 58 349 347 174
345 344 338 338 332 328 317 248 189 182 193 182 198 215 213 193 201 209 215 225 242 229 239 258 246 291 238 218 210 208 204 225 233 255 236 228 216 276 234 308 159 167 247 279 359 15 177